Location: Squamish
(49.7000°N, 123.1500°W)
Time: 18:51:41
(UTC-07:00)

ISS - Visible Passes

Search period start: 18 March 2019 00:00
Search period end: 28 March 2019 00:00
Orbit: 406 x 411 km, 51.6° (Epoch: 19 March)

Date Brightness Start Highest point End Pass type
(mag) Time Alt. Az. Time Alt. Az. Time Alt. Az.
21 Mar -1.3 21:44:57 10° SW 21:45:38 15° SW 21:45:38 15° SW visible
22 Mar -2.9 20:54:14 10° SSW 20:57:10 30° SSE 20:57:24 30° SE visible
23 Mar -2.2 20:03:47 10° S 20:06:17 20° SE 20:08:46 10° E visible
23 Mar -3.2 21:39:10 10° WSW 21:41:43 50° WSW 21:41:43 50° WSW visible
24 Mar -3.7 20:48:11 10° SW 20:51:26 56° SSE 20:53:06 25° E visible
24 Mar -1.2 22:24:44 10° W 22:25:52 19° W 22:25:52 19° W visible
25 Mar -3.7 21:33:34 10° W 21:36:52 71° NNW 21:37:05 68° NNE visible
26 Mar -3.8 20:42:26 10° WSW 20:45:45 89° NNW 20:48:13 17° ENE visible
26 Mar -1.8 22:19:11 10° WNW 22:20:57 28° WNW 22:20:57 28° WNW visible
27 Mar -3.4 21:28:00 10° W 21:31:17 60° N 21:31:58 46° NE visible
27 Mar -0.4 23:04:41 10° WNW 23:04:42 10° WNW 23:04:42 10° WNW visible
